Location: Christianberg
(48.9086°N, 14.0209°E)
Time: 20:43:45
(UTC+00:00)

SL-4 R/B - Pass Details

Date: 26 October 2021
Orbit: 427 x 661 km, 51.6° (Epoch: 03 December)

Event Time Altitude Azimuth Distance (km) Brightness Sun altitude
Exits shadow 02:38:01 19° 124° (ESE) 1,394 4.4 -30.5°
Drops below altitude 10° 02:39:12 10° 122° (ESE) 1,845 5.1 -30.3°
Sets 02:41:21 0° 120° (ESE) 2,697 6.1 -30.0°
